| time (UTC) | temp F | wind direction | speed knots | gust knots | rain 1hr in | rain 24hr in | rain mn in | humidity % | barometer mb |
| 20260509192135 | 63 | 232 | 8.7 | 11.3 | 0.00 | 0.07 | 0.07 | 52 | 1002.2 |
| 20260509191629 | 63 | 235 | 6.1 | 7.8 | 0.00 | 0.07 | 0.07 | 54 | 1002.3 |
| 20260509191127 | 63 | 317 | 6.1 | 8.7 | 0.00 | 0.07 | 0.07 | 53 | 1002.1 |
| 20260509190623 | 63 | 211 | 1.7 | 4.3 | 0.00 | 0.07 | 0.07 | 52 | 1002.3 |
| 20260509190120 | 63 | 283 | 2.6 | 4.3 | 0.00 | 0.07 | 0.07 | 52 | 1002.1 |
| 20260509185618 | 62 | 205 | 6.1 | 7.8 | 0.00 | 0.07 | 0.07 | 53 | 1002.1 |
| 20260509185114 | 62 | 270 | 4.3 | 6.1 | 0.00 | 0.07 | 0.07 | 54 | 1002.0 |
| 20260509184612 | 62 | 216 | 3.5 | 5.2 | 0.00 | 0.07 | 0.07 | 55 | 1001.9 |
| 20260509184109 | 63 | 299 | 5.2 | 8.7 | 0.00 | 0.07 | 0.07 | 55 | 1002.0 |
| 20260509183604 | 63 | 285 | 5.2 | 7.8 | 0.00 | 0.07 | 0.07 | 54 | 1001.9 |
| 20260509183100 | 64 | 299 | 6.1 | 8.7 | 0.00 | 0.07 | 0.07 | 55 | 1002.0 |
| 20260509182556 | 64 | 327 | 10.4 | 14.8 | 0.00 | 0.07 | 0.07 | 54 | 1001.8 |
| 20260509182053 | 64 | 332 | 3.5 | 6.1 | 0.00 | 0.07 | 0.07 | 56 | 1001.8 |
| 20260509181552 | 64 | 221 | 2.6 | 5.2 | 0.00 | 0.07 | 0.07 | 56 | 1002.0 |
| 20260509181048 | 64 | 334 | 5.2 | 7.0 | 0.00 | 0.07 | 0.07 | 55 | 1001.8 |
| 20260509180544 | 64 | 198 | 4.3 | 7.0 | 0.00 | 0.07 | 0.07 | 54 | 1002.0 |
| 20260509180042 | 64 | 209 | 5.2 | 8.7 | 0.00 | 0.07 | 0.07 | 54 | 1001.9 |
| 20260509175537 | 65 | 217 | 6.1 | 11.3 | 0.00 | 0.07 | 0.07 | 54 | 1001.8 |
| 20260509175035 | 66 | 302 | 8.7 | 12.2 | 0.00 | 0.07 | 0.07 | 53 | 1001.5 |
| 20260509174531 | 66 | 275 | 8.7 | 15.6 | 0.00 | 0.07 | 0.07 | 54 | 1001.6 |
| 20260509174026 | 65 | 256 | 5.2 | 7.0 | 0.00 | 0.07 | 0.07 | 64 | 1001.3 |
| 20260509173520 | 63 | 321 | 4.3 | 7.0 | 0.00 | 0.07 | 0.07 | 69 | 1001.3 |
| 20260509173018 | 62 | 280 | 4.3 | 7.0 | 0.05 | 0.07 | 0.07 | 74 | 1001.2 |
| 20260509172515 | 60 | 292 | 6.1 | 7.8 | 0.05 | 0.07 | 0.07 | 78 | 1001.2 |
| 20260509172010 | 59 | 259 | 4.3 | 7.0 | 0.07 | 0.06 | 0.06 | 82 | 1001.1 |
| 20260509171506 | 59 | 256 | 3.5 | 4.3 | 0.38 | 0.06 | 0.06 | 84 | 1001.2 |
| 20260509171003 | 61 | 231 | 4.3 | 4.3 | 0.31 | 0.05 | 0.05 | 78 | 1001.4 |
| 20260509170458 | 67 | 272 | 7.0 | 8.7 | 0.00 | 0.00 | 0.00 | 55 | 1001.2 |
| 20260509165954 | 68 | 277 | 6.1 | 7.0 | 0.00 | 0.00 | 0.00 | 53 | 1001.0 |
| 20260509165453 | 67 | 212 | 4.3 | 7.8 | 0.00 | 0.00 | 0.00 | 54 | 1001.0 |
| 20260509164949 | 67 | 176 | 4.3 | 6.1 | 0.00 | 0.00 | 0.00 | 55 | 1001.5 |
| 20260509164445 | 67 | 283 | 2.6 | 4.3 | 0.00 | 0.00 | 0.00 | 58 | 1001.2 |
| 20260509163941 | 68 | 261 | 7.8 | 11.3 | 0.00 | 0.00 | 0.00 | 56 | 1001.1 |
| 20260509163439 | 68 | 193 | 4.3 | 6.1 | 0.00 | 0.00 | 0.00 | 57 | 1001.1 |
| 20260509162938 | 67 | 206 | 6.1 | 7.0 | 0.00 | 0.00 | 0.00 | 58 | 1001.1 |
| 20260509162437 | 67 | 269 | 5.2 | 6.1 | 0.00 | 0.00 | 0.00 | 57 | 1001.2 |
| 20260509161932 | 66 | 278 | 3.5 | 6.1 | 0.00 | 0.00 | 0.00 | 59 | 1001.0 |
| 20260509161429 | 66 | 255 | 6.1 | 7.0 | 0.00 | 0.00 | 0.00 | 59 | 1001.3 |
| 20260509160924 | 65 | 208 | 4.3 | 7.8 | 0.00 | 0.00 | 0.00 | 60 | 1001.1 |
| 20260509160420 | 66 | 184 | 7.8 | 11.3 | 0.00 | 0.00 | 0.00 | 60 | 1001.2 |
| 20260509155916 | 67 | 286 | 5.2 | 12.2 | 0.00 | 0.00 | 0.00 | 60 | 1001.4 |
| 20260509155413 | 66 | 96 | 0.0 | 0.0 | 0.00 | 0.00 | 0.00 | 62 | 1001.3 |
| 20260509154909 | 65 | 286 | 2.6 | 5.2 | 0.00 | 0.00 | 0.00 | 62 | 1001.3 |
| 20260509154405 | 66 | 98 | 0.9 | 1.7 | 0.00 | 0.00 | 0.00 | 61 | 1001.1 |
| 20260509153902 | 65 | 203 | 0.9 | 1.7 | 0.00 | 0.00 | 0.00 | 64 | 1001.3 |
| 20260509153359 | 64 | 278 | 3.5 | 4.3 | 0.00 | 0.00 | 0.00 | 63 | 1001.4 |
| 20260509152856 | 63 | 212 | 0.0 | 0.9 | 0.00 | 0.00 | 0.00 | 67 | 1001.8 |
| 20260509152352 | 62 | 235 | 0.0 | 0.0 | 0.00 | 0.00 | 0.00 | 70 | 1001.8 |
| 20260509151850 | 62 | 246 | 1.7 | 4.3 | 0.00 | 0.00 | 0.00 | 71 | 1001.7 |
| 20260509151345 | 61 | 129 | 2.6 | 2.6 | 0.00 | 0.00 | 0.00 | 71 | 1001.8 |
| 20260509150844 | 61 | 217 | 2.6 | 2.6 | 0.00 | 0.00 | 0.00 | 73 | 1001.9 |
| 20260509150341 | 61 | 221 | 0.0 | 0.0 | 0.00 | 0.00 | 0.00 | 74 | 1001.7 |
| 20260509145838 | 61 | 251 | 0.0 | 0.0 | 0.00 | 0.00 | 0.00 | 73 | 1002.0 |
| 20260509145333 | 61 | 91 | 2.6 | 2.6 | 0.00 | 0.00 | 0.00 | 76 | 1001.9 |
| 20260509144830 | 60 | 304 | 0.0 | 0.0 | 0.00 | 0.00 | 0.00 | 78 | 1002.0 |
| 20260509144327 | 59 | 132 | 0.0 | 0.0 | 0.00 | 0.00 | 0.00 | 79 | 1002.1 |
| 20260509143824 | 59 | 315 | 0.0 | 0.0 | 0.00 | 0.00 | 0.00 | 81 | 1002.0 |
| 20260509143322 | 59 | 261 | 0.9 | 0.9 | 0.00 | 0.00 | 0.00 | 80 | 1002.0 |
| 20260509142817 | 58 | 242 | 0.9 | 0.9 | 0.00 | 0.00 | 0.00 | 81 | 1001.9 |
| 20260509142314 | 57 | 263 | 0.0 | 0.0 | 0.00 | 0.00 | 0.00 | 83 | 1002.1 |
| 20260509141809 | 58 | 112 | 0.9 | 2.6 | 0.00 | 0.00 | 0.00 | 83 | 1002.3 |
| 20260509141307 | 58 | 276 | 4.3 | 7.0 | 0.00 | 0.00 | 0.00 | 82 | 1002.1 |
| 20260509140803 | 57 | 91 | 0.9 | 0.9 | 0.00 | 0.00 | 0.00 | 87 | 1002.0 |
| 20260509140300 | 57 | 127 | 0.0 | 0.0 | 0.00 | 0.00 | 0.00 | 88 | 1002.3 |
| 20260509135758 | 56 | 214 | 2.6 | 2.6 | 0.00 | 0.00 | 0.00 | 88 | 1002.5 |
| 20260509135255 | 55 | 77 | 1.7 | 1.7 | 0.00 | 0.00 | 0.00 | 89 | 1002.4 |
| 20260509134752 | 54 | 205 | 0.0 | 0.0 | 0.00 | 0.00 | 0.00 | 93 | 1002.3 |
| 20260509134250 | 54 | 158 | 0.0 | 0.9 | 0.00 | 0.00 | 0.00 | 94 | 1002.7 |
| 20260509133747 | 53 | 231 | 0.0 | 0.9 | 0.00 | 0.00 | 0.00 | 94 | 1002.7 |
| 20260509133243 | 54 | 279 | 0.0 | 0.9 | 0.00 | 0.00 | 0.00 | 94 | 1002.6 |
| 20260509132742 | 54 | 47 | 0.0 | 0.0 | 0.00 | 0.00 | 0.00 | 93 | 1003.5 |
| 20260509132240 | 54 | 93 | 1.7 | 1.7 | 0.00 | 0.00 | 0.00 | 91 | 1003.6 |
| 20260509131737 | 54 | 269 | 0.0 | 0.0 | 0.00 | 0.00 | 0.00 | 89 | 1004.3 |
| 20260509131233 | 55 | 322 | 0.0 | 0.0 | 0.00 | 0.00 | 0.00 | 88 | 1004.3 |
| 20260509130729 | 55 | 356 | 1.7 | 1.7 | 0.00 | 0.00 | 0.00 | 86 | 1004.3 |
| 20260509130225 | 56 | 297 | 4.3 | 6.1 | 0.00 | 0.00 | 0.00 | 84 | 1004.2 |
| 20260509125722 | 56 | 295 | 1.7 | 1.7 | 0.00 | 0.00 | 0.00 | 83 | 1003.5 |
| 20260509125219 | 56 | 223 | 0.0 | 0.0 | 0.00 | 0.00 | 0.00 | 83 | 1002.7 |
| 20260509124715 | 56 | 315 | 0.9 | 2.6 | 0.00 | 0.00 | 0.00 | 83 | 1002.7 |
| 20260509124212 | 57 | 194 | 0.0 | 0.0 | 0.00 | 0.00 | 0.00 | 82 | 1002.9 |
| 20260509123710 | 57 | 209 | 0.0 | 0.0 | 0.00 | 0.00 | 0.00 | 82 | 1002.9 |
| 20260509123207 | 57 | 225 | 0.9 | 1.7 | 0.00 | 0.00 | 0.00 | 82 | 1003.1 |
| 20260509122702 | 57 | 212 | 0.9 | 2.6 | 0.00 | 0.00 | 0.00 | 81 | 1002.8 |
| 20260509122200 | 56 | 235 | 1.7 | 5.2 | 0.00 | 0.00 | 0.00 | 83 | 1003.1 |
| 20260509121656 | 56 | 189 | 0.9 | 0.9 | 0.00 | 0.00 | 0.00 | 84 | 1002.9 |
| 20260509121154 | 55 | 218 | 0.0 | 0.0 | 0.00 | 0.00 | 0.00 | 86 | 1003.0 |
| 20260509120652 | 54 | 150 | 0.9 | 1.7 | 0.00 | 0.00 | 0.00 | 88 | 1003.2 |
| 20260509120150 | 54 | 228 | 0.0 | 0.0 | 0.00 | 0.00 | 0.00 | 89 | 1003.4 |
| 20260509115647 | 53 | 205 | 0.0 | 0.0 | 0.00 | 0.00 | 0.00 | 91 | 1003.3 |
| 20260509115144 | 52 | 215 | 0.0 | 0.0 | 0.00 | 0.00 | 0.00 | 93 | 1003.4 |
| 20260509114642 | 52 | 182 | 0.0 | 0.0 | 0.00 | 0.00 | 0.00 | 93 | 1003.6 |
| 20260509114142 | 52 | 352 | 0.0 | 0.0 | 0.00 | 0.00 | 0.00 | 93 | 1003.7 |
| 20260509113639 | 52 | 65 | 0.0 | 0.0 | 0.00 | 0.00 | 0.00 | 94 | 1003.7 |
| 20260509113136 | 51 | 199 | 0.9 | 0.9 | 0.00 | 0.00 | 0.00 | 95 | 1003.7 |
| 20260509112632 | 50 | 214 | 0.0 | 0.0 | 0.00 | 0.00 | 0.00 | 96 | 1003.9 |
| 20260509112130 | 50 | 246 | 0.0 | 0.0 | 0.00 | 0.00 | 0.00 | 96 | 1003.7 |
| 20260509111627 | 50 | 73 | 0.9 | 1.7 | 0.00 | 0.00 | 0.00 | 96 | 1003.4 |
| 20260509111124 | 50 | 199 | 0.0 | 0.0 | 0.00 | 0.00 | 0.00 | 97 | 1003.6 |
| 20260509110621 | 50 | 234 | 0.0 | 0.0 | 0.00 | 0.00 | 0.00 | 97 | 1003.9 |
| 20260509110118 | 50 | 242 | 0.0 | 0.0 | 0.00 | 0.00 | 0.00 | 98 | 1003.6 |
| 20260509105616 | 49 | 261 | 0.0 | 0.0 | 0.00 | 0.00 | 0.00 | 98 | 1003.9 |
| 20260509105113 | 49 | 286 | 0.0 | 0.9 | 0.00 | 0.00 | 0.00 | 98 | 1003.9 |
| 20260509104610 | 49 | 288 | 0.0 | 0.0 | 0.00 | 0.00 | 0.00 | 99 | 1003.7 |
| 20260509104108 | 49 | 314 | 0.0 | 0.0 | 0.00 | 0.00 | 0.00 | 99 | 1003.6 |
| 20260509103605 | 48 | 100 | 0.0 | 0.0 | 0.00 | 0.00 | 0.00 | 99 | 1004.0 |
| 20260509103103 | 48 | 2 | 0.0 | 0.0 | 0.00 | 0.00 | 0.00 | 99 | 1003.7 |
| 20260509102600 | 48 | 273 | 0.0 | 0.0 | 0.00 | 0.00 | 0.00 | 98 | 1003.9 |
| 20260509102056 | 48 | 275 | 0.0 | 0.0 | 0.00 | 0.00 | 0.00 | 98 | 1004.1 |
| 20260509101553 | 47 | 246 | 0.0 | 0.0 | 0.00 | 0.00 | 0.00 | 98 | 1004.2 |
| 20260509101050 | 47 | 257 | 0.0 | 0.0 | 0.00 | 0.00 | 0.00 | 98 | 1003.7 |
| 20260509100547 | 47 | 230 | 0.0 | 0.0 | 0.00 | 0.00 | 0.00 | 97 | 1004.1 |
| 20260509100044 | 47 | 273 | 0.0 | 0.0 | 0.00 | 0.00 | 0.00 | 97 | 1004.3 |
| 20260509095540 | 46 | 298 | 0.0 | 0.0 | 0.00 | 0.00 | 0.00 | 96 | 1004.2 |
| 20260509095038 | 46 | 206 | 0.0 | 0.0 | 0.00 | 0.00 | 0.00 | 96 | 1004.3 |
| 20260509094534 | 46 | 256 | 0.0 | 0.0 | 0.00 | 0.00 | 0.00 | 95 | 1004.4 |
| 20260509094032 | 46 | 283 | 0.0 | 0.0 | 0.00 | 0.00 | 0.00 | 94 | 1004.5 |
| 20260509093530 | 46 | 255 | 0.0 | 0.0 | 0.00 | 0.00 | 0.00 | 93 | 1004.7 |
| 20260509093027 | 46 | 289 | 0.0 | 0.0 | 0.00 | 0.00 | 0.00 | 92 | 1004.6 |
| 20260509092525 | 46 | 277 | 0.0 | 0.0 | 0.00 | 0.00 | 0.00 | 92 | 1004.8 |
| 20260509092023 | 46 | 199 | 0.0 | 0.0 | 0.00 | 0.00 | 0.00 | 92 | 1005.0 |
| 20260509091520 | 45 | 301 | 0.0 | 0.0 | 0.00 | 0.00 | 0.00 | 91 | 1004.6 |
| 20260509091017 | 45 | 287 | 0.0 | 0.0 | 0.00 | 0.00 | 0.00 | 90 | 1004.7 |
| 20260509090514 | 44 | 345 | 0.0 | 0.0 | 0.00 | 0.00 | 0.00 | 89 | 1004.7 |
| 20260509090012 | 44 | 293 | 0.0 | 0.0 | 0.00 | 0.00 | 0.00 | 88 | 1004.7 |
| 20260509085509 | 44 | 267 | 0.0 | 0.0 | 0.00 | 0.00 | 0.00 | 87 | 1004.8 |
| 20260509085005 | 45 | 275 | 0.0 | 0.0 | 0.00 | 0.00 | 0.00 | 86 | 1004.7 |
| 20260509084502 | 45 | 271 | 0.0 | 0.0 | 0.00 | 0.00 | 0.00 | 85 | 1004.8 |
| 20260509083959 | 45 | 277 | 0.0 | 0.0 | 0.00 | 0.00 | 0.00 | 83 | 1004.7 |
| 20260509083456 | 45 | 294 | 0.0 | 0.0 | 0.00 | 0.00 | 0.00 | 82 | 1004.7 |
| 20260509082952 | 46 | 267 | 0.0 | 0.0 | 0.00 | 0.00 | 0.00 | 81 | 1005.0 |
| 20260509082450 | 45 | 264 | 0.0 | 0.0 | 0.00 | 0.00 | 0.00 | 80 | 1004.8 |
| 20260509081947 | 45 | 272 | 0.0 | 0.0 | 0.00 | 0.00 | 0.00 | 79 | 1004.9 |
| 20260509081444 | 45 | 198 | 0.0 | 0.0 | 0.00 | 0.00 | 0.00 | 77 | 1004.9 |
| 20260509080941 | 46 | 273 | 0.0 | 0.0 | 0.00 | 0.00 | 0.00 | 75 | 1004.8 |
| 20260509080440 | 46 | 296 | 0.0 | 0.0 | 0.00 | 0.00 | 0.00 | 73 | 1004.6 |
| 20260509075937 | 46 | 282 | 0.0 | 0.0 | 0.00 | 0.00 | 0.00 | 71 | 1004.7 |
| 20260509075434 | 46 | 255 | 0.0 | 0.0 | 0.00 | 0.00 | 0.00 | 70 | 1004.6 |
| 20260509074932 | 46 | 294 | 0.0 | 0.0 | 0.00 | 0.00 | 0.00 | 67 | 1004.5 |
| 20260509074429 | 46 | 262 | 0.0 | 0.0 | 0.00 | 0.00 | 0.00 | 64 | 1004.7 |
| 20260509073925 | 46 | 252 | 0.0 | 0.0 | 0.00 | 0.00 | 0.00 | 63 | 1004.8 |
| 20260509073422 | 46 | 255 | 0.0 | 0.0 | 0.00 | 0.00 | 0.00 | 61 | 1004.8 |
| 20260509072918 | 46 | 257 | 0.0 | 0.0 | 0.00 | 0.00 | 0.00 | 60 | 1005.0 |
| 20260509072415 | 46 | 250 | 0.0 | 0.0 | 0.00 | 0.00 | 0.00 | 58 | 1004.8 |
| 20260509071911 | 46 | 256 | 0.0 | 0.0 | 0.00 | 0.00 | 0.00 | 58 | 1005.0 |
| 20260509071409 | 45 | 304 | 0.0 | 0.0 | 0.00 | 0.00 | 0.00 | 57 | 1005.0 |
| 20260509070906 | 45 | 294 | 0.0 | 0.0 | 0.00 | 0.00 | 0.00 | 58 | 1004.9 |
| 20260509070403 | 45 | 318 | 0.0 | 0.0 | 0.00 | 0.00 | 0.00 | 58 | 1005.1 |
| 20260509065858 | 45 | 288 | 0.0 | 0.0 | 0.00 | 0.00 | 0.00 | 58 | 1005.2 |
| 20260509065355 | 45 | 230 | 0.0 | 0.0 | 0.00 | 0.00 | 0.00 | 59 | 1005.2 |
| 20260509064851 | 44 | 326 | 0.0 | 0.0 | 0.00 | 0.00 | 0.00 | 60 | 1005.2 |
| 20260509064349 | 44 | 279 | 0.0 | 0.0 | 0.00 | 0.00 | 0.00 | 60 | 1005.4 |
| 20260509063846 | 43 | 238 | 0.0 | 0.0 | 0.00 | 0.00 | 0.00 | 62 | 1005.5 |
| 20260509063342 | 43 | 328 | 0.0 | 0.0 | 0.00 | 0.00 | 0.00 | 65 | 1005.4 |
| 20260509062839 | 43 | 321 | 0.0 | 0.0 | 0.00 | 0.00 | 0.00 | 69 | 1005.5 |
| 20260509062336 | 43 | 312 | 0.0 | 0.0 | 0.00 | 0.00 | 0.00 | 71 | 1005.5 |
| 20260509061834 | 43 | 292 | 0.0 | 0.0 | 0.00 | 0.00 | 0.00 | 70 | 1005.4 |
| 20260509061332 | 42 | 299 | 0.0 | 0.0 | 0.00 | 0.00 | 0.00 | 69 | 1005.5 |
| 20260509060828 | 42 | 299 | 0.0 | 0.0 | 0.00 | 0.00 | 0.00 | 70 | 1005.4 |
| 20260509060326 | 42 | 299 | 0.0 | 0.0 | 0.00 | 0.00 | 0.00 | 71 | 1005.6 |
| 20260509055821 | 43 | 301 | 0.0 | 0.0 | 0.00 | 0.00 | 0.00 | 71 | 1005.5 |
| 20260509055316 | 44 | 301 | 0.0 | 0.0 | 0.00 | 0.00 | 0.00 | 73 | 1005.6 |
| 20260509054814 | 44 | 314 | 0.0 | 0.0 | 0.00 | 0.00 | 0.00 | 72 | 1005.5 |
| 20260509054310 | 44 | 297 | 0.0 | 0.0 | 0.00 | 0.00 | 0.00 | 70 | 1005.7 |
| 20260509053809 | 44 | 322 | 0.0 | 0.0 | 0.00 | 0.00 | 0.00 | 69 | 1005.4 |
| 20260509053305 | 45 | 350 | 0.0 | 0.0 | 0.00 | 0.00 | 0.00 | 70 | 1005.5 |
| 20260509052803 | 45 | 318 | 0.0 | 0.0 | 0.00 | 0.00 | 0.00 | 69 | 1005.8 |
| 20260509052301 | 46 | 303 | 0.0 | 0.0 | 0.00 | 0.00 | 0.00 | 68 | 1005.6 |
| 20260509051758 | 45 | 284 | 0.0 | 0.0 | 0.00 | 0.00 | 0.00 | 67 | 1005.8 |
| 20260509051256 | 46 | 331 | 0.0 | 0.0 | 0.00 | 0.00 | 0.00 | 67 | 1005.7 |
| 20260509050753 | 46 | 279 | 0.0 | 0.0 | 0.00 | 0.00 | 0.00 | 67 | 1005.7 |
| 20260509050249 | 46 | 15 | 0.0 | 0.0 | 0.00 | 0.00 | 0.00 | 66 | 1005.7 |
| 20260509045747 | 46 | 260 | 0.0 | 0.0 | 0.00 | 0.00 | 0.00 | 66 | 1005.9 |
| 20260509045243 | 47 | 260 | 0.0 | 0.0 | 0.00 | 0.00 | 0.00 | 63 | 1006.0 |
| 20260509044741 | 47 | 268 | 0.0 | 0.0 | 0.00 | 0.00 | 0.00 | 62 | 1005.9 |
| 20260509044238 | 47 | 277 | 0.0 | 0.0 | 0.00 | 0.00 | 0.00 | 63 | 1005.8 |
| 20260509043734 | 47 | 287 | 0.0 | 0.0 | 0.00 | 0.00 | 0.00 | 62 | 1005.9 |
| 20260509043230 | 47 | 265 | 0.0 | 0.0 | 0.00 | 0.00 | 0.00 | 65 | 1006.0 |
| 20260509042726 | 48 | 265 | 0.0 | 0.0 | 0.00 | 0.00 | 0.00 | 63 | 1006.0 |
| 20260509042223 | 48 | 265 | 0.0 | 0.0 | 0.00 | 0.00 | 0.00 | 61 | 1006.1 |
| 20260509041720 | 48 | 265 | 0.0 | 0.0 | 0.00 | 0.00 | 0.00 | 61 | 1005.8 |
| 20260509041217 | 49 | 263 | 0.0 | 0.0 | 0.00 | 0.00 | 0.00 | 62 | 1005.9 |
| 20260509040716 | 49 | 243 | 0.0 | 0.0 | 0.00 | 0.00 | 0.00 | 60 | 1006.2 |
| 20260509040212 | 49 | 244 | 0.0 | 0.0 | 0.00 | 0.00 | 0.00 | 61 | 1006.2 |
| 20260509035708 | 49 | 257 | 0.0 | 0.0 | 0.00 | 0.00 | 0.00 | 60 | 1006.3 |
| 20260509035205 | 49 | 258 | 0.0 | 0.0 | 0.00 | 0.00 | 0.00 | 61 | 1006.3 |
| 20260509034703 | 49 | 280 | 0.0 | 0.0 | 0.00 | 0.00 | 0.00 | 62 | 1006.1 |
| 20260509034200 | 49 | 289 | 0.0 | 0.0 | 0.00 | 0.00 | 0.00 | 59 | 1006.3 |
| 20260509033657 | 50 | 323 | 0.0 | 0.0 | 0.00 | 0.00 | 0.00 | 61 | 1006.4 |
| 20260509033154 | 50 | 316 | 0.0 | 0.0 | 0.00 | 0.00 | 0.00 | 61 | 1006.3 |
| 20260509032651 | 50 | 281 | 0.0 | 0.0 | 0.00 | 0.00 | 0.00 | 62 | 1006.3 |
| 20260509032148 | 49 | 292 | 0.0 | 0.0 | 0.00 | 0.00 | 0.00 | 63 | 1006.5 |
| 20260509031646 | 49 | 292 | 0.0 | 0.0 | 0.00 | 0.00 | 0.00 | 62 | 1006.8 |
| 20260509031143 | 49 | 292 | 0.0 | 0.0 | 0.00 | 0.00 | 0.00 | 62 | 1006.7 |
| 20260509030641 | 49 | 293 | 0.0 | 0.0 | 0.00 | 0.00 | 0.00 | 60 | 1006.5 |
| 20260509030138 | 49 | 293 | 0.0 | 0.0 | 0.00 | 0.00 | 0.00 | 60 | 1006.7 |
| 20260509025634 | 49 | 293 | 0.0 | 0.0 | 0.00 | 0.00 | 0.00 | 59 | 1006.7 |
| 20260509025130 | 49 | 292 | 0.0 | 0.0 | 0.00 | 0.00 | 0.00 | 61 | 1006.8 |
| 20260509024625 | 48 | 292 | 0.0 | 0.0 | 0.00 | 0.00 | 0.00 | 63 | 1006.8 |
| 20260509024121 | 48 | 315 | 0.0 | 0.0 | 0.00 | 0.00 | 0.00 | 62 | 1006.8 |
| 20260509023620 | 48 | 322 | 0.0 | 0.0 | 0.00 | 0.00 | 0.00 | 61 | 1006.7 |
| 20260509023116 | 48 | 322 | 0.0 | 0.0 | 0.00 | 0.00 | 0.00 | 60 | 1006.9 |
| 20260509022613 | 48 | 322 | 0.0 | 0.0 | 0.00 | 0.00 | 0.00 | 60 | 1006.7 |
| 20260509022111 | 49 | 322 | 0.0 | 0.0 | 0.00 | 0.00 | 0.00 | 59 | 1006.9 |
| 20260509021607 | 49 | 267 | 0.0 | 0.0 | 0.00 | 0.00 | 0.00 | 59 | 1007.0 |
| 20260509021104 | 49 | 268 | 0.0 | 0.0 | 0.00 | 0.00 | 0.00 | 58 | 1006.7 |
| 20260509020603 | 49 | 268 | 0.0 | 0.0 | 0.00 | 0.00 | 0.00 | 58 | 1006.9 |
| 20260509020059 | 49 | 268 | 0.0 | 0.0 | 0.00 | 0.00 | 0.00 | 58 | 1006.8 |
| 20260509015558 | 50 | 268 | 0.0 | 0.0 | 0.00 | 0.00 | 0.00 | 57 | 1006.9 |
| 20260509015055 | 50 | 268 | 0.0 | 0.0 | 0.00 | 0.00 | 0.00 | 56 | 1006.8 |
| 20260509014552 | 50 | 268 | 0.0 | 0.0 | 0.00 | 0.00 | 0.00 | 55 | 1006.8 |
| 20260509014048 | 51 | 268 | 0.0 | 0.0 | 0.00 | 0.00 | 0.00 | 54 | 1006.9 |
| 20260509013545 | 51 | 267 | 0.0 | 0.0 | 0.00 | 0.00 | 0.00 | 52 | 1006.6 |
| 20260509013040 | 52 | 268 | 0.0 | 0.0 | 0.00 | 0.00 | 0.00 | 51 | 1006.7 |
| 20260509012538 | 52 | 290 | 0.0 | 0.0 | 0.00 | 0.00 | 0.00 | 50 | 1006.6 |
| 20260509012034 | 53 | 292 | 0.0 | 0.0 | 0.00 | 0.00 | 0.00 | 50 | 1006.2 |
| 20260509011532 | 53 | 292 | 0.0 | 0.0 | 0.00 | 0.00 | 0.00 | 49 | 1006.3 |
| 20260509011029 | 53 | 292 | 0.0 | 0.0 | 0.00 | 0.00 | 0.00 | 47 | 1006.4 |
| 20260509010527 | 55 | 292 | 0.0 | 0.0 | 0.00 | 0.00 | 0.00 | 46 | 1006.3 |
| 20260509010024 | 55 | 289 | 0.0 | 0.0 | 0.00 | 0.00 | 0.00 | 44 | 1006.2 |
| 20260509005521 | 56 | 293 | 0.0 | 0.0 | 0.00 | 0.00 | 0.00 | 42 | 1006.2 |
| 20260509005021 | 56 | 292 | 0.0 | 0.0 | 0.00 | 0.00 | 0.00 | 40 | 1006.3 |
| 20260509004519 | 57 | 292 | 0.0 | 0.0 | 0.00 | 0.00 | 0.00 | 39 | 1006.1 |
| 20260509004015 | 57 | 292 | 0.0 | 0.0 | 0.00 | 0.00 | 0.00 | 38 | 1006.0 |
| 20260509003514 | 58 | 292 | 0.0 | 0.0 | 0.00 | 0.00 | 0.00 | 40 | 1006.1 |
| 20260509003010 | 58 | 316 | 0.0 | 0.0 | 0.00 | 0.00 | 0.00 | 37 | 1006.0 |
| 20260509002508 | 59 | 273 | 0.0 | 0.0 | 0.00 | 0.00 | 0.00 | 36 | 1006.2 |
| 20260509002005 | 59 | 276 | 0.0 | 0.0 | 0.00 | 0.00 | 0.00 | 36 | 1006.1 |
| 20260509001502 | 59 | 294 | 0.0 | 0.0 | 0.00 | 0.00 | 0.00 | 34 | 1006.0 |
| 20260509000959 | 60 | 310 | 0.0 | 0.0 | 0.00 | 0.00 | 0.00 | 33 | 1005.9 |
| 20260509000457 | 60 | 292 | 0.0 | 0.0 | 0.00 | 0.00 | 0.00 | 35 | 1006.0 |
| 20260508235952 | 60 | 266 | 0.0 | 0.0 | 0.00 | 0.00 | 0.00 | 33 | 1006.0 |
| 20260508235450 | 61 | 298 | 0.0 | 0.0 | 0.00 | 0.00 | 0.00 | 33 | 1006.0 |
| 20260508234947 | 61 | 282 | 0.0 | 0.0 | 0.00 | 0.00 | 0.00 | 31 | 1005.8 |
| 20260508234444 | 62 | 271 | 2.6 | 4.3 | 0.00 | 0.00 | 0.00 | 31 | 1005.8 |
| 20260508233941 | 62 | 259 | 1.7 | 1.7 | 0.00 | 0.00 | 0.00 | 31 | 1005.9 |
| 20260508233441 | 62 | 250 | 0.0 | 0.9 | 0.00 | 0.00 | 0.00 | 30 | 1006.0 |
| 20260508232937 | 63 | 281 | 0.9 | 0.9 | 0.00 | 0.00 | 0.00 | 31 | 1005.6 |
| 20260508232434 | 64 | 304 | 0.0 | 0.0 | 0.00 | 0.00 | 0.00 | 29 | 1005.8 |
| 20260508231931 | 64 | 303 | 0.9 | 1.7 | 0.00 | 0.00 | 0.00 | 30 | 1005.8 |
| 20260508231428 | 64 | 309 | 0.0 | 0.0 | 0.00 | 0.00 | 0.00 | 30 | 1005.8 |
| 20260508230925 | 63 | 279 | 3.5 | 4.3 | 0.00 | 0.00 | 0.00 | 29 | 1005.8 |
| 20260508230422 | 64 | 225 | 2.6 | 2.6 | 0.00 | 0.00 | 0.00 | 29 | 1006.0 |
| 20260508225919 | 64 | 282 | 2.6 | 5.2 | 0.00 | 0.00 | 0.00 | 30 | 1006.1 |
| 20260508225415 | 64 | 353 | 0.9 | 0.9 | 0.00 | 0.00 | 0.00 | 29 | 1006.2 |
| 20260508224913 | 64 | 262 | 3.5 | 5.2 | 0.00 | 0.00 | 0.00 | 28 | 1006.2 |
| 20260508224411 | 65 | 238 | 2.6 | 4.3 | 0.00 | 0.00 | 0.00 | 30 | 1006.0 |
| 20260508223908 | 65 | 266 | 0.0 | 0.0 | 0.00 | 0.00 | 0.00 | 29 | 1006.2 |
| 20260508223406 | 66 | 325 | 0.0 | 0.0 | 0.00 | 0.00 | 0.00 | 29 | 1006.2 |
| 20260508222903 | 65 | 268 | 0.9 | 1.7 | 0.00 | 0.00 | 0.00 | 30 | 1006.1 |
| 20260508222400 | 64 | 225 | 0.9 | 0.9 | 0.00 | 0.00 | 0.00 | 31 | 1006.3 |
| 20260508221856 | 64 | 262 | 0.0 | 0.0 | 0.00 | 0.00 | 0.00 | 31 | 1006.2 |
| 20260508221352 | 64 | 242 | 0.0 | 0.0 | 0.00 | 0.00 | 0.00 | 30 | 1006.2 |
| 20260508220849 | 64 | 214 | 2.6 | 4.3 | 0.00 | 0.00 | 0.00 | 31 | 1006.6 |
| 20260508220345 | 64 | 215 | 3.5 | 5.2 | 0.00 | 0.00 | 0.00 | 30 | 1006.4 |
| 20260508215841 | 64 | 224 | 4.3 | 6.1 | 0.00 | 0.00 | 0.00 | 30 | 1006.6 |
| 20260508215338 | 64 | 246 | 1.7 | 1.7 | 0.00 | 0.00 | 0.00 | 31 | 1006.5 |
| 20260508214835 | 65 | 291 | 1.7 | 2.6 | 0.00 | 0.00 | 0.00 | 33 | 1006.6 |
| 20260508214332 | 65 | 311 | 1.7 | 2.6 | 0.00 | 0.00 | 0.00 | 30 | 1006.5 |
| 20260508213828 | 64 | 290 | 0.0 | 0.9 | 0.00 | 0.00 | 0.00 | 30 | 1006.6 |
| 20260508213325 | 64 | 66 | 0.9 | 0.9 | 0.00 | 0.00 | 0.00 | 32 | 1006.6 |
| 20260508212822 | 64 | 220 | 0.0 | 0.9 | 0.00 | 0.00 | 0.00 | 30 | 1006.8 |
| 20260508212318 | 64 | 232 | 2.6 | 4.3 | 0.00 | 0.00 | 0.00 | 30 | 1006.7 |
| 20260508211814 | 64 | 254 | 1.7 | 2.6 | 0.00 | 0.00 | 0.00 | 30 | 1006.8 |
| 20260508211309 | 64 | 279 | 6.1 | 8.7 | 0.00 | 0.00 | 0.00 | 30 | 1006.8 |
| 20260508210808 | 64 | 279 | 4.3 | 9.6 | 0.00 | 0.00 | 0.00 | 31 | 1006.8 |
| 20260508210304 | 64 | 273 | 2.6 | 4.3 | 0.00 | 0.00 | 0.00 | 30 | 1006.6 |
| 20260508205801 | 64 | 293 | 0.9 | 1.7 | 0.00 | 0.00 | 0.00 | 31 | 1006.9 |
| 20260508205257 | 64 | 273 | 1.7 | 4.3 | 0.00 | 0.00 | 0.00 | 30 | 1006.9 |
| 20260508204753 | 64 | 174 | 2.6 | 5.2 | 0.00 | 0.00 | 0.00 | 29 | 1007.0 |
| 20260508204250 | 64 | 251 | 6.1 | 11.3 | 0.00 | 0.00 | 0.00 | 29 | 1007.1 |
| 20260508203746 | 63 | 297 | 2.6 | 2.6 | 0.00 | 0.00 | 0.00 | 30 | 1006.9 |
| 20260508203243 | 65 | 294 | 3.5 | 4.3 | 0.00 | 0.00 | 0.00 | 32 | 1007.3 |
| 20260508202738 | 63 | 300 | 1.7 | 1.7 | 0.00 | 0.00 | 0.00 | 33 | 1007.4 |
| 20260508202236 | 63 | 271 | 3.5 | 7.0 | 0.00 | 0.00 | 0.00 | 32 | 1007.5 |
| 20260508201733 | 63 | 210 | 2.6 | 2.6 | 0.00 | 0.00 | 0.00 | 32 | 1007.7 |
| 20260508201229 | 63 | 216 | 1.7 | 4.3 | 0.00 | 0.00 | 0.00 | 34 | 1007.5 |
| 20260508200726 | 64 | 264 | 0.0 | 0.0 | 0.00 | 0.00 | 0.00 | 32 | 1007.7 |
| 20260508200222 | 62 | 213 | 0.9 | 0.9 | 0.00 | 0.00 | 0.00 | 33 | 1007.9 |
| 20260508195719 | 62 | 322 | 3.5 | 5.2 | 0.00 | 0.00 | 0.00 | 33 | 1007.9 |
| 20260508195215 | 63 | 247 | 1.7 | 2.6 | 0.00 | 0.00 | 0.00 | 32 | 1008.0 |
| 20260508194712 | 64 | 313 | 6.1 | 7.8 | 0.00 | 0.00 | 0.00 | 31 | 1008.0 |
| 20260508194209 | 62 | 204 | 0.0 | 0.0 | 0.00 | 0.00 | 0.00 | 33 | 1008.1 |
| 20260508193706 | 62 | 336 | 0.9 | 2.6 | 0.00 | 0.00 | 0.00 | 33 | 1008.2 |
| 20260508193203 | 63 | 203 | 2.6 | 4.3 | 0.00 | 0.00 | 0.00 | 33 | 1008.4 |
| 20260508192659 | 61 | 222 | 0.9 | 0.9 | 0.00 | 0.00 | 0.00 | 34 | 1008.4 |